Terminal Aerodrome Forecast
Issued by NWS

Current Version | Previous Version | Graphics & Text | Print | Product List | Glossary On
Versions: 1 2 3 4 5 6 7 8 9 10 11 12 13 14 15 16 17 18 19 20 21
000
FTUS41 KPBZ 281700 RRA
TAFMGW
TAF
KMGW 281747Z 2818/0118 05003KT P6SM BKN100
     FM010500 VRB03KT P6SM OVC070
     FM010800 14006KT 2SM -SN OVC015
     FM011600 18006KT 4SM -RA OVC015=

USA.gov is the U.S. government's official web portal to all federal, state and local government web resources and services.